N5CSC Weather Reports


time (UTC)temp
F
wind
direction
speed
knots
gust
knots
rain 1hr
in
rain 24hr
in
rain mn
in
humidity
%
barometer
mb
20260508024526 66 14 2.6 4.3 0.00 0.00 0.00 65 1013.1
20260508023026 66 30 0.9 5.2 0.00 0.00 0.00 65 1013.1
20260508021524 66 26 1.7 3.5 0.00 0.00 0.00 65 1012.9
20260508020024 66 28 1.7 5.2 0.00 0.00 0.00 64 1012.8
20260508014523 66 351 2.6 6.1 0.00 0.00 0.00 64 1012.4
20260508013023 67 93 0.9 4.3 0.00 0.00 0.00 63 1011.7
20260508011524 67 62 1.7 6.1 0.00 0.00 0.00 62 1011.4
20260508010028 67 98 1.7 5.2 0.00 0.00 0.00 62 1011.6
20260508004534 67 74 3.5 7.8 0.00 0.00 0.00 60 1011.0
20260508003017 68 71 2.6 7.0 0.00 0.00 0.00 60 1011.8
20260508001516 68 48 3.5 8.7 0.00 0.00 0.00 60 1012.3
20260508000018 68 34 5.2 7.8 0.00 0.00 0.00 60 1013.1
20260507234523 69 43 4.3 7.8 0.00 0.00 0.00 60 1013.1
20260507233023 69 15 5.2 11.3 0.00 0.00 0.00 59 1013.4
20260507231616 69 32 5.2 11.3 0.00 0.00 0.00 60 1013.4
20260507230014 69 19 5.2 12.2 0.00 0.00 0.00 60 1013.1
20260507224518 69 40 3.5 10.4 0.00 0.00 0.00 61 1013.4
20260507223013 69 37 5.2 9.6 0.00 0.00 0.00 61 1013.7
20260507221510 69 33 5.2 10.4 0.00 0.00 0.00 61 1014.0
20260507220010 69 44 6.1 9.6 0.00 0.00 0.00 61 1013.8
20260507214515 69 29 3.5 12.2 0.00 0.00 0.00 63 1013.9
20260507213008 69 51 6.1 9.6 0.00 0.00 0.00 64 1013.9
20260507211507 69 5 7.0 14.8 0.00 0.00 0.00 65 1014.0
20260507210007 69 38 4.3 10.4 0.00 0.00 0.00 67 1013.7
20260507204505 69 26 6.1 16.5 0.00 0.00 0.00 67 1013.7
20260507203007 68 27 7.8 13.9 0.00 0.00 0.00 67 1013.6
20260507201509 69 14 5.2 11.3 0.00 0.00 0.00 67 1013.6
20260507200004 69 360 6.1 10.4 0.00 0.00 0.00 67 1014.0
20260507194502 69 19 6.1 8.7 0.00 0.00 0.00 68 1014.0
20260507193102 69 54 7.0 13.0 0.00 0.00 0.00 69 1013.4
20260507191557 67 32 4.3 11.3 0.00 0.00 0.00 70 1014.1
20260507190053 66 30 7.0 11.3 0.00 0.00 0.00 70 1014.5
20260507184552 66 34 6.1 13.0 0.00 0.00 0.00 71 1014.5
20260507183051 66 20 4.3 8.7 0.00 0.00 0.00 72 1015.2
20260507181551 66 5 4.3 9.6 0.00 0.00 0.00 71 1015.9
20260507180052 66 47 4.3 12.2 0.00 0.00 0.00 72 1015.3
20260507174617 66 360 7.8 15.6 0.00 0.00 0.00 71 1015.4
20260507173049 66 30 7.0 12.2 0.00 0.00 0.00 73 1015.8
20260507171602 64 34 8.7 13.0 0.00 0.00 0.00 74 1015.7
20260507170048 64 32 5.2 12.2 0.00 0.00 0.00 74 1016.1
20260507164551 64 36 4.3 12.2 0.00 0.00 0.00 75 1016.1
20260507163044 63 62 7.0 13.9 0.00 0.00 0.00 75 1016.0
20260507161547 63 54 8.7 13.9 0.00 0.00 0.00 75 1015.7
20260507160109 63 42 8.7 13.0 0.00 0.00 0.00 75 1015.7
20260507154541 62 360 8.7 16.5 0.00 0.00 0.00 75 1015.7
20260507153041 63 340 7.0 14.8 0.00 0.00 0.00 75 1015.7
20260507151539 62 5 7.8 15.6 0.00 0.00 0.00 76 1015.4
20260507150040 62 22 8.7 14.8 0.00 0.00 0.00 76 1015.2
20260507144538 62 346 7.8 14.8 0.00 0.00 0.00 77 1015.4
20260507143037 62 46 8.7 13.9 0.00 0.00 0.00 77 1015.6
20260507141537 62 13 8.7 15.6 0.00 0.00 0.00 77 1015.2
20260507140044 61 355 8.7 19.1 0.00 0.00 0.00 77 1014.8
20260507134532 62 30 5.2 14.8 0.00 0.00 0.00 77 1015.2
20260507133033 62 42 7.8 14.8 0.00 0.00 0.00 76 1015.2
20260507131548 62 22 8.7 13.9 0.00 0.00 0.00 76 1014.9
20260507130026 62 38 5.2 13.9 0.00 0.00 0.00 75 1014.7
20260507124523 63 9 6.1 11.3 0.00 0.00 0.00 74 1014.8
20260507123026 63 38 7.0 12.2 0.00 0.00 0.00 73 1014.7
20260507121516 63 43 5.2 10.4 0.00 0.00 0.00 73 1014.7
20260507120026 63 36 6.1 12.2 0.00 0.00 0.00 73 1014.7
20260507114508 64 24 7.0 16.5 0.00 0.00 0.00 73 1013.6
20260507113007 64 59 7.0 12.2 0.00 0.00 0.00 72 1013.2
20260507111506 64 30 6.1 10.4 0.00 0.00 0.00 72 1013.0
20260507110004 64 41 5.2 9.6 0.00 0.00 0.00 72 1013.2
20260507104504 64 17 4.3 12.2 0.00 0.00 0.00 72 1012.9
20260507103101 64 42 6.1 11.3 0.00 0.00 0.00 72 1012.7
20260507101559 64 14 6.1 9.6 0.00 0.00 0.00 72 1013.1
20260507094606 64 39 4.3 11.3 0.00 0.00 0.00 72 1012.5
20260507093056 64 360 6.1 10.4 0.00 0.00 0.00 73 1012.7
20260507091554 64 35 5.2 9.6 0.00 0.00 0.00 73 1012.8
20260507090054 64 35 3.5 7.8 0.00 0.00 0.00 73 1012.9
20260507084559 64 28 4.3 8.7 0.00 0.00 0.00 73 1012.7
20260507083053 64 51 4.3 7.8 0.00 0.00 0.00 73 1012.8
20260507081551 64 47 3.5 7.0 0.00 0.00 0.00 73 1012.6
20260507080053 64 360 5.2 10.4 0.00 0.00 0.00 73 1012.6
20260507074551 64 23 5.2 10.4 0.00 0.00 0.00 73 1012.7
20260507073051 65 22 2.6 9.6 0.00 0.00 0.00 73 1013.1
20260507071547 65 23 4.3 8.7 0.00 0.00 0.00 73 1012.8
20260507070057 65 53 4.3 11.3 0.00 0.00 0.00 73 1012.9
20260507064547 65 50 5.2 11.3 0.00 0.00 0.00 73 1013.0
20260507063046 65 35 6.1 13.0 0.00 0.00 0.00 73 1013.0
20260507061541 65 45 6.1 10.4 0.00 0.00 0.00 73 1012.8
20260507060046 65 33 2.6 10.4 0.00 0.00 0.00 73 1012.8
20260507054540 65 11 6.1 11.3 0.00 0.00 0.00 73 1012.4
20260507053034 65 51 7.0 11.3 0.00 0.00 0.00 73 1012.3
20260507051529 66 35 4.3 9.6 0.00 0.00 0.00 73 1012.3
20260507050048 66 79 4.3 9.6 0.00 0.00 0.00 73 1012.3
20260507044524 66 30 5.2 12.2 0.00 0.00 0.00 73 1012.4
20260507043019 66 17 6.1 9.6 0.00 0.00 0.00 73 1012.2
20260507041515 66 49 3.5 7.8 0.00 0.00 0.00 73 1011.9
20260507040016 66 42 3.5 9.6 0.00 0.00 0.00 73 1011.5
20260507034513 66 34 6.1 13.9 0.00 0.00 0.00 73 1011.4
20260507033015 66 329 7.0 11.3 0.00 0.00 0.00 72 1011.6
20260507031509 66 51 3.5 11.3 0.00 0.00 0.00 72 1011.4
20260507030007 66 57 4.3 11.3 0.00 0.00 0.00 72 1011.3